Location: Miles
(41.4492°N, 81.6087°W)
Time: 22:40:34
(UTC+00:00)

Courier 1B Rocket - Pass Details

Date: 20 September 2024
Orbit: 920 x 1201 km, 28.2° (Epoch: 09 October)

Event Time Altitude Azimuth Distance (km) Brightness Sun altitude
Rises 00:50:36 0° 252° (WSW) 3,796 9.1 -16.1°
Reaches altitude 10° 00:55:59 10° 218° (SW) 2,922 7.8 -17.1°
Maximum altitude 00:57:39 11° 205° (SSW) 2,881 7.5 -17.4°
Drops below altitude 10° 00:59:20 10° 191° (S) 2,969 7.5 -17.7°
Enters shadow 01:03:24 - 165° (SSE) 3,624 7.7 -18.4°
Sets 01:05:01 0° 158° (SSE) 3,998 - -18.7°
